Wind_Speed
58 60 62 63 64 64 64 63 64 64 65 67 69 69 70 70 71 72 72 75 74 73 76 82 85 87 87 88 89 88 96 96 96 98 98 103 105 96 99 99 100 103 108
63 63 64 67 68 68 67 68 67 66 66 68 71 73 73 74 74 72 74 77 79 79 79 86 89 90 91 93 93 97 103 103 109 108 108 104 103 100 104 105 106 109 110
69 69 71 72 74 73 72 72 71 70 69 70 72 75 76 74 74 77 79 82 82 82 84 89 92 94 97 98 105 106 108 111 115 115 113 115 107 112 115 115 112 115 113
75 74 77 79 79 77 76 75 75 73 73 74 75 77 78 78 80 82 84 84 84 87 87 90 95 99 102 105 108 109 112 116 119 118 118 114 114 122 124 119 120 117 115
82 81 83 82 82 81 80 79 81 79 77 77 79 82 82 84 85 86 88 89 90 91 94 98 102 106 109 109 108 110 115 118 117 115 116 117 117 118 118 120 119 119 117
85 85 86 86 86 86 84 84 84 83 81 81 83 85 87 87 89 92 94 95 94 95 97 104 106 110 110 113 116 114 118 115 114 113 119 118 122 120 120 120 121 119 120
87 86 88 88 89 89 87 86 86 86 85 86 87 89 90 90 92 97 99 103 103 103 105 108 108 109 114 115 112 117 116 115 116 119 119 125 122 126 125 122 121 121 122
93 93 91 89 90 90 89 89 89 89 90 92 94 95 95 97 101 105 106 108 109 110 111 110 113 112 114 117 124 116 115 120 122 126 127 125 123 123 123 123 124 124 125
98 94 94 94 94 94 93 94 94 94 94 94 96 98 102 106 108 107 109 110 111 113 113 111 110 114 117 118 121 120 120 122 127 128 128 125 123 127 127 128 129 128 127
98 98 97 97 97 96 97 98 100 99 100 103 105 106 107 109 109 110 112 110 110 114 116 115 115 114 118 124 123 120 122 127 125 127 125 127 126 127 130 131 130 131 131
102 105 106 103 104 106 106 106 109 110 113 112 111 111 111 109 111 112 113 115 115 117 114 116 118 123 123 126 125 125 128 128 125 124 126 128 129 129 131 135 135 134 135
104 103 104 103 104 105 106 107 111 113 113 112 110 112 112 112 114 113 115 118 121 121 122 124 124 123 127 130 132 133 131 128 125 127 127 127 130 131 132 134 137 138 137
115 113 112 112 109 107 107 107 107 108 111 112 111 110 109 111 113 116 120 121 121 119 124 124 125 125 129 130 133 131 128 126 127 128 129 131 132 132 134 135 134 134 134
117 116 116 114 112 109 108 108 110 115 117 116 118 116 115 117 118 119 119 120 121 123 121 123 126 130 131 131 129 127 126 127 129 129 130 132 134 135 135 134 133 133 132
116 114 111 112 113 113 110 110 108 110 113 113 115 117 117 117 120 122 123 123 123 125 127 133 129 128 126 124 124 125 127 128 130 131 132 133 134 134 135 135 133 131 130
108 110 109 109 109 108 110 112 113 113 114 115 117 119 121 121 122 125 125 128 130 132 128 124 123 122 121 121 123 125 127 128 129 131 131 132 134 135 135 135 133 130 127
104 105 105 106 111 111 114 118 120 121 120 121 121 124 125 123 124 126 125 122 119 117 117 119 118 118 119 120 122 124 126 127 128 129 131 131 132 133 133 132 130 126 121
103 103 103 103 103 104 106 110 113 117 117 116 117 119 121 119 116 116 117 116 114 114 115 116 118 118 118 120 122 123 125 127 128 128 128 128 128 128 127 125 122 119 115
107 105 102 103 103 103 105 106 108 108 109 109 110 112 113 112 114 115 116 117 116 116 117 117 117 118 119 120 120 120 122 121 122 123 123 123 123 123 121 119 117 114 110
107 108 107 107 106 106 106 105 107 109 110 110 110 112 115 114 114 115 116 117 117 117 117 116 115 115 117 117 117 116 115 116 117 118 120 121 119 119 117 116 112 109 104
107 108 108 110 111 110 110 111 110 110 110 111 112 113 114 114 115 114 115 114 113 113 113 113 112 111 112 113 114 115 116 117 118 119 119 119 117 116 114 111 108 103 99
104 105 105 106 108 109 109 109 109 110 110 110 110 110 112 113 112 112 112 112 111 112 112 112 112 114 114 115 116 118 119 119 119 119 117 115 114 111 108 105 100 95 89
99 101 101 103 105 106 107 108 108 108 109 110 110 110 110 110 110 110 112 113 113 114 115 116 116 117 117 118 119 120 120 118 117 116 114 110 107 103 100 97 93 89 83
97 99 100 102 103 105 106 106 107 108 109 109 110 110 110 111 112 113 113 114 115 117 117 118 118 118 119 120 120 119 118 116 114 111 107 104 102 97 93 89 86 83 80
99 100 101 102 104 105 107 108 109 109 110 111 112 112 113 114 114 114 115 116 116 116 117 118 118 119 118 117 117 115 112 110 107 103 100 97 94 91 87 85 83 79 75
102 103 104 104 106 107 108 109 110 110 112 112 113 113 113 113 113 114 115 115 116 116 116 115 114 113 112 110 108 106 105 103 100 96 92 91 88 84 82 81 79 75 71
Wind_Direction
274 277 279 277 278 280 281 281 285 286 286 286 286 286 286 287 288 291 292 295 297 298 298 297 295 296 295 299 299 295 300 299 297 299 299 301 301 301 300 301 302 302 300
278 277 275 275 276 279 281 283 286 285 285 286 286 285 285 286 288 289 292 295 295 295 295 294 295 294 296 299 295 294 297 298 298 300 301 300 302 298 301 301 303 302 302
279 278 276 275 277 280 283 283 284 285 287 287 285 283 284 285 285 288 291 294 293 293 295 294 293 294 295 294 295 297 298 298 298 299 300 300 297 301 304 303 302 302 304
279 277 276 277 279 281 282 281 283 282 284 282 283 283 282 283 285 288 290 291 292 292 291 290 289 290 290 291 292 295 296 296 298 298 298 299 296 298 300 302 304 305 305
278 277 276 278 279 279 280 278 280 282 283 282 281 281 281 283 284 287 288 287 288 288 287 287 287 288 289 290 292 294 293 295 296 297 297 299 301 302 302 303 305 305 305
276 276 276 276 276 277 278 278 279 280 280 279 278 278 280 282 284 285 286 286 285 284 285 285 288 288 287 289 292 292 292 295 296 296 297 299 299 302 302 302 304 306 305
273 273 275 275 276 276 275 275 276 278 277 276 277 277 279 281 282 282 283 284 285 285 286 288 288 286 287 290 293 291 295 297 296 300 301 299 302 303 303 304 305 305 305
271 273 274 275 276 275 274 274 275 276 276 276 277 279 280 281 282 283 283 284 285 286 288 288 285 286 287 290 290 295 298 297 298 297 299 300 301 303 303 304 304 305 306
272 271 272 273 274 273 273 273 274 275 275 276 277 277 278 280 281 282 283 284 285 286 289 286 287 287 286 286 291 294 296 296 298 301 300 302 303 303 304 304 304 306 306
269 270 271 272 273 270 270 271 272 272 273 274 276 277 279 279 279 279 281 283 285 286 284 283 285 285 289 291 295 298 298 298 299 300 301 301 301 303 303 304 304 305 306
269 269 270 271 271 269 268 269 271 273 274 275 275 275 274 275 276 278 279 281 282 284 284 284 284 286 290 293 296 297 297 297 300 299 299 301 301 301 303 304 304 306 308
269 270 268 269 270 271 270 270 271 272 272 271 272 273 272 273 275 276 278 280 281 282 282 283 285 287 290 292 293 295 297 299 297 297 298 299 301 300 300 303 304 304 306
267 269 270 268 269 269 270 271 269 270 271 273 273 272 271 272 273 275 277 278 280 280 281 283 286 291 291 293 295 297 296 295 296 297 297 296 298 301 301 301 301 302 304
263 265 267 266 266 266 266 266 268 267 268 270 271 270 271 272 274 276 276 278 280 282 284 288 289 290 293 293 293 293 294 294 293 295 297 299 298 298 299 299 301 303 304
264 264 265 265 266 265 265 266 266 268 268 269 270 269 272 273 275 276 280 282 284 286 287 288 290 290 291 290 290 290 292 294 294 295 295 295 296 297 299 300 301 303 305
268 267 267 267 267 266 266 267 266 267 268 269 271 272 272 275 277 279 280 284 285 285 286 287 288 287 288 288 289 291 291 292 293 293 294 295 296 297 298 299 301 303 304
267 265 266 267 266 266 267 268 268 268 269 270 272 273 274 276 278 281 282 283 284 285 285 285 285 285 286 287 289 289 289 290 291 292 294 295 295 296 298 298 300 301 303
268 268 268 268 267 268 268 269 269 270 271 272 273 274 276 278 279 280 281 283 283 283 282 283 284 285 286 287 287 288 290 290 291 292 292 293 294 294 295 297 300 300 302
269 269 270 270 270 270 270 271 272 273 274 275 275 276 278 279 280 281 282 282 282 282 283 284 285 286 286 287 288 288 289 289 289 290 291 291 292 294 297 298 299 300 303
271 272 272 272 272 272 271 271 272 273 274 275 276 277 278 279 279 280 280 281 283 284 284 285 286 287 287 288 289 289 289 289 289 290 290 292 294 295 297 298 301 301 302
267 269 271 273 273 274 274 275 275 275 276 277 277 277 278 279 280 281 281 282 283 284 285 286 287 287 288 288 289 290 289 289 289 290 293 293 295 296 298 298 300 301 302
269 270 270 270 271 272 273 274 275 275 276 277 278 279 279 280 282 284 285 285 286 286 287 288 289 289 289 288 288 288 289 290 291 292 293 294 295 296 297 298 299 299 300
270 270 270 270 271 272 273 274 275 276 277 277 278 279 280 281 283 284 284 285 286 287 287 287 287 287 288 288 288 289 290 290 291 291 293 294 295 296 297 297 298 298 299
268 269 269 270 271 272 273 274 274 275 276 277 278 279 280 280 281 282 283 284 285 285 286 287 288 288 287 287 288 289 289 290 292 293 294 294 295 296 296 296 296 296 297
270 270 270 271 271 271 271 272 273 275 276 276 277 278 279 280 281 282 284 285 285 286 286 285 285 285 287 288 288 289 290 291 292 293 294 293 294 294 295 294 295 295 296
269 270 270 270 271 272 272 273 274 275 276 277 278 280 281 283 284 284 284 284 284 284 285 286 287 287 287 288 290 290 290 291 292 292 293 292 292 293 293 293 293 294 294
Height
10656 10653 10648 10644 10641 10639 10636 10633 10631 10628 10625 10621 10618 10615 10610 10606 10601 10597 10591 10586 10581 10575 10569 10561 10555 10548 10541 10534 10525 10514 10508 10497 10489 10483 10478 10469 10459 10450 10438 10427 10416 10403 10389
10639 10636 10631 10627 10624 10622 10620 10618 10616 10612 10609 10606 10602 10597 10593 10589 10584 10580 10574 10569 10563 10557 10552 10545 10537 10530 10522 10514 10504 10495 10486 10474 10464 10460 10452 10445 10436 10425 10414 10403 10392 10377 10362
10621 10616 10610 10608 10606 10605 10603 10601 10598 10595 10593 10589 10585 10580 10576 10571 10567 10562 10557 10551 10545 10539 10533 10526 10519 10512 10504 10493 10483 10474 10462 10452 10441 10435 10429 10418 10406 10396 10385 10375 10360 10347 10333
10601 10598 10591 10588 10587 10586 10585 10582 10579 10577 10573 10570 10566 10562 10557 10553 10549 10543 10537 10532 10526 10520 10514 10507 10499 10492 10482 10472 10463 10454 10441 10428 10420 10413 10404 10393 10379 10369 10358 10344 10329 10316 10304
10577 10577 10571 10569 10568 10566 10564 10561 10559 10556 10552 10549 10546 10542 10537 10534 10529 10523 10517 10512 10507 10500 10493 10485 10477 10469 10460 10450 10443 10431 10418 10408 10399 10390 10379 10367 10351 10341 10327 10313 10303 10289 10274
10556 10554 10551 10549 10547 10545 10544 10540 10539 10535 10532 10529 10526 10522 10517 10513 10508 10501 10496 10490 10485 10479 10473 10464 10457 10446 10434 10427 10419 10405 10393 10388 10375 10363 10352 10341 10325 10311 10299 10285 10272 10261 10254
10534 10532 10529 10527 10525 10522 10521 10519 10516 10514 10511 10507 10504 10499 10494 10490 10485 10477 10472 10466 10461 10456 10449 10441 10432 10421 10410 10402 10393 10378 10375 10361 10345 10337 10326 10311 10300 10282 10270 10256 10242 10232 10219
10509 10507 10506 10505 10504 10501 10498 10495 10493 10490 10488 10485 10481 10476 10471 10465 10461 10454 10449 10441 10436 10430 10423 10415 10404 10394 10384 10373 10361 10357 10348 10332 10318 10311 10300 10283 10268 10253 10240 10228 10214 10204 10192
10482 10483 10482 10480 10479 10477 10475 10472 10470 10468 10464 10460 10456 10452 10448 10442 10437 10430 10423 10417 10411 10405 10397 10388 10379 10368 10356 10341 10341 10330 10317 10304 10288 10277 10265 10252 10240 10225 10207 10197 10184 10174 10166
10456 10456 10455 10454 10453 10452 10448 10447 10444 10442 10439 10436 10431 10427 10423 10416 10413 10404 10398 10392 10385 10378 10371 10362 10352 10340 10322 10316 10309 10300 10288 10272 10263 10247 10233 10222 10210 10198 10180 10166 10155 10141 10129
10427 10427 10426 10426 10425 10424 10421 10419 10416 10415 10412 10409 10405 10400 10395 10389 10384 10379 10372 10366 10358 10352 10344 10335 10324 10311 10300 10287 10280 10272 10259 10247 10232 10218 10206 10194 10182 10170 10154 10136 10123 10108 10093
10395 10395 10396 10395 10394 10392 10391 10389 10386 10384 10381 10379 10375 10371 10366 10361 10356 10350 10344 10336 10330 10323 10315 10306 10297 10284 10272 10260 10250 10240 10228 10217 10206 10192 10180 10168 10156 10147 10135 10117 10097 10082 10069
10364 10365 10364 10364 10363 10362 10360 10358 10355 10352 10350 10347 10345 10341 10336 10331 10326 10320 10313 10308 10300 10292 10283 10275 10266 10254 10242 10230 10219 10208 10198 10189 10178 10166 10154 10143 10131 10117 10106 10092 10080 10064 10050
10328 10330 10332 10330 10330 10329 10328 10326 10324 10322 10319 10315 10312 10308 10304 10299 10294 10290 10284 10277 10268 10261 10254 10246 10235 10224 10214 10202 10188 10176 10167 10158 10148 10137 10123 10111 10100 10088 10077 10066 10054 10040 10024
10297 10297 10296 10296 10296 10297 10296 10293 10291 10289 10286 10283 10278 10275 10270 10266 10262 10257 10250 10243 10238 10230 10222 10213 10203 10194 10184 10171 10160 10149 10137 10127 10117 10106 10096 10084 10071 10059 10046 10035 10023 10012 9998
10262 10262 10264 10265 10263 10263 10261 10258 10256 10254 10251 10250 10246 10241 10236 10234 10229 10222 10218 10209 10204 10199 10190 10180 10173 10163 10154 10144 10132 10120 10109 10099 10088 10076 10066 10055 10041 10028 10015 10003 9994 9985 9973
10229 10230 10231 10230 10228 10227 10227 10223 10220 10219 10218 10215 10212 10205 10201 10198 10195 10189 10184 10177 10170 10166 10158 10147 10142 10133 10121 10113 10104 10094 10084 10073 10061 10050 10039 10026 10012 9999 9988 9976 9966 9957 9949
10197 10196 10196 10197 10196 10194 10192 10189 10186 10184 10183 10180 10177 10174 10166 10165 10163 10157 10150 10144 10139 10131 10125 10116 10108 10100 10092 10084 10074 10064 10054 10042 10031 10020 10009 9997 9986 9974 9962 9952 9942 9930 9922
10157 10160 10165 10164 10163 10162 10159 10157 10153 10151 10149 10147 10144 10139 10134 10132 10127 10123 10117 10109 10103 10097 10090 10083 10075 10067 10059 10051 10042 10032 10022 10011 10000 9988 9977 9966 9956 9946 9937 9926 9916 9904 9894
10129 10128 10127 10127 10128 10128 10127 10125 10122 10119 10116 10113 10110 10106 10100 10098 10094 10089 10082 10075 10069 10061 10055 10049 10042 10034 10025 10016 10007 9998 9989 9979 9968 9957 9945 9934 9927 9918 9908 9898 9889 9879 9868
10097 10097 10096 10095 10092 10092 10091 10089 10088 10087 10084 10080 10076 10071 10067 10064 10059 10054 10047 10041 10035 10028 10020 10014 10006 9999 9991 9981 9972 9963 9953 9944 9934 9924 9915 9906 9898 9888 9879 9869 9861 9852 9844
10065 10064 10064 10063 10061 10059 10057 10055 10053 10050 10047 10045 10042 10037 10031 10027 10022 10017 10011 10004 9997 9991 9984 9977 9971 9963 9955 9947 9938 9928 9919 9910 9902 9893 9885 9877 9868 9859 9850 9841 9833 9826 9820
10034 10032 10031 10029 10027 10026 10024 10022 10019 10017 10013 10010 10006 10003 9999 9994 9989 9983 9976 9970 9964 9958 9950 9944 9937 9930 9922 9913 9903 9894 9885 9878 9871 9862 9854 9846 9838 9831 9823 9815 9807 9801 9796
10004 10002 10001 9999 9997 9995 9993 9990 9987 9984 9982 9979 9974 9970 9966 9961 9956 9949 9944 9938 9931 9925 9918 9911 9903 9895 9885 9876 9868 9860 9852 9846 9838 9830 9823 9814 9808 9802 9796 9788 9781 9776 9773
9973 9971 9970 9968 9966 9964 9961 9958 9956 9954 9951 9947 9942 9937 9932 9927 9921 9916 9911 9904 9898 9892 9884 9875 9867 9858 9849 9842 9833 9826 9818 9810 9804 9799 9792 9784 9778 9774 9769 9762 9757 9752 9749
9942 9939 9937 9935 9933 9931 9928 9926 9922 9919 9915 9910 9906 9901 9897 9893 9888 9882 9875 9868 9862 9854 9846 9838 9830 9822 9815 9808 9801 9794 9786 9778 9773 9768 9764 9756 9750 9747 9743 9736 9732 9729 9726